[[{"header":{"parameterUnit":"m.s-1","parameterCategory":1,"la1":30.2991,"la2":30.254,"lo1":-89.0895,"lo2":-89.0444,"dy":0.0017,"dx":0.0017,"nx":28,"ny":28,"refTime":"2025-03-19T21:00:00:Z","depth":0,"parameterNumber":2,"parameterNumberName":"U-component_of_WINDS"},"data":[0,0,0,0,0,0,0,0,0,0,0,0,0,0,0,0,0,0,0,0,0,0,0,0,0,0,0,0,0,0,0,0,0,0,0,0,0,0,0,0,0,0,0,0,0,0,0,0,0,0,0,0,0,0,0,0,0,0,3.9502,3.9503,0,3.9572,3.9573,3.9574,3.9529,3.9527,3.9525,3.9523,3.9593,3.9597,3.9601,0,0,0,0,0,0,0,0,0,0,0,0,0,3.9329,3.9332,3.9502,3.9503,3.9504,3.9572,3.9573,3.9574,3.9529,3.9527,3.9524,3.9522,3.9592,3.9596,3.9601,0,0,0,0,0,0,0,0,0,0,0,0,0,3.9402,3.9333,3.9502,3.949,3.9489,3.9572,3.9573,3.9574,3.953,3.9526,3.9523,3.952,3.959,3.9596,3.9602,3.97,0,0,3.9619,3.9622,0,0,0,0,0,0,0,0,3.9398,3.9408,3.949,3.9491,3.949,3.9539,3.9538,3.9616,3.953,3.9514,3.9522,3.9519,3.9577,3.9584,3.9604,3.9703,3.9706,3.962,3.9623,3.9626,3.9627,0,0,0,0,0,0,0,3.9393,3.9405,3.953,3.9492,3.9492,3.9481,3.9487,3.9553,3.9562,3.9515,3.9512,3.9521,3.9577,3.9599,3.9605,3.9707,3.9619,3.9625,3.9628,3.963,3.9893,3.9896,0,0,0,0,0,0,3.9389,3.9401,3.9527,3.9532,3.9435,3.9486,3.9494,3.9526,3.9562,3.9564,3.9524,3.9519,3.959,3.9599,3.9608,3.9726,3.9626,3.9631,3.9634,3.989,3.9894,3.9898,0,0,0,0,0,0,3.9385,3.9401,3.9525,3.9466,3.9481,3.9493,3.9529,3.9529,3.9551,3.9568,3.957,3.9545,3.9588,3.96,3.9678,3.9728,3.9634,3.9639,3.9885,3.9891,3.9896,3.9964,0,0,0,0,0,0,3.938,3.94,3.9437,3.9467,3.9484,3.9594,3.9532,3.9533,3.9561,3.9555,3.9588,3.959,3.9587,3.967,3.9684,3.9734,3.9643,3.9881,3.9888,3.9894,3.9957,3.9971,3.9982,0,0,0,0,0,3.9374,3.9452,3.9439,3.9454,3.9531,3.9597,3.9606,3.9601,3.9565,3.9603,3.9615,3.9589,3.9721,3.9678,3.9693,3.9746,3.9878,3.9886,3.9894,3.9951,3.9968,3.9982,0,0,0,0,0,0,3.9426,3.9456,3.9441,3.9531,3.9562,3.9589,3.9636,3.9619,3.966,3.9652,3.9644,3.9652,3.9734,3.9748,3.97,3.9845,3.9794,3.9805,3.9832,3.9848,3.9861,3.9855,3.9648,0,0,0,0,0,3.9449,3.95,3.9523,3.96,3.9616,3.9624,3.9652,3.9646,3.9677,3.969,3.9707,3.9738,3.9786,3.9818,3.9863,3.9959,3.9966,4.0004,4.0016,4.0027,4.0036,4.009,4.0107,3.9924,3.9924,3.9923,0,0,3.9494,3.9517,3.9549,3.9611,3.9634,3.9688,3.9635,3.9693,3.9733,3.9698,3.9774,3.9788,3.9822,3.991,3.9949,3.9924,4.0089,4.0037,4.0045,4.0049,4.01,4.0117,4.0132,3.9929,3.9928,3.9927,0,0,3.9605,3.9627,3.9695,3.9719,3.9756,3.9761,3.9777,3.9808,3.9816,3.9892,3.9867,3.9915,3.9998,4.0024,4.0048,4.0172,4.015,4.0187,4.0253,4.0305,4.0319,4.0332,4.0377,4.0393,4.0197,4.0197,4.0197,0,3.9657,3.9737,3.9731,3.9792,3.982,3.9793,3.9862,3.9886,3.9935,3.9955,3.9927,4.0032,4.0053,4.0148,4.0178,4.0199,4.0218,4.0182,4.0318,4.033,4.0342,4.0385,4.0402,4.0201,4.0201,4.02,4.02,0,3.9799,3.9855,3.9906,3.9955,3.9989,4.0053,4.0058,4.0093,4.0085,4.0093,4.0172,4.0197,4.0247,4.027,4.0261,4.0364,4.0347,4.0319,4.0267,4.0364,4.0404,4.042,4.0207,4.0206,4.0204,4.0203,0,0,3.9943,3.999,4.0009,4.0032,4.0071,4.0114,4.0178,4.0229,4.0259,4.0295,4.0349,4.0421,4.0396,4.0423,4.0418,4.0464,4.0562,4.043,4.043,4.0454,4.0677,4.0699,4.0717,4.0548,4.0551,4.0554,4.0675,0,4.0056,4.0168,4.0166,4.027,4.0322,4.0298,4.0354,4.0385,4.0395,4.0441,4.0452,4.0504,4.0466,4.0483,4.0527,4.054,4.0607,4.0532,4.0598,4.0601,4.059,4.0738,4.076,4.0873,4.069,4.0693,4.0695,0,4.0202,4.0244,4.0354,4.0387,4.0409,4.0459,4.0507,4.0551,4.0586,4.059,4.0622,4.0611,4.0676,4.0624,4.0715,4.0664,4.0692,4.0703,4.0707,4.0712,4.0653,4.0748,4.0908,4.0925,4.0719,4.0717,4.0715,0,4.0296,4.038,4.0457,4.0477,4.0518,4.0554,4.0573,4.0604,4.0636,4.0677,4.0698,4.0746,4.0773,4.0811,4.0813,4.0775,4.0906,4.0853,4.0911,4.0911,4.0939,4.0937,4.1106,4.0957,4.0957,4.0957,4.0956,0,4.0422,4.049,4.05,4.0547,4.0623,4.0621,4.0696,4.0711,4.0741,4.0791,4.0773,4.0821,4.0821,4.0869,4.0872,4.0947,4.0959,4.0965,4.0964,4.0966,4.0966,4.0983,4.0975,4.0961,4.096,4.0959,4.0959,0,4.0539,4.0548,4.0631,4.0664,4.0674,4.0728,4.0756,4.0802,4.0812,4.0875,4.089,4.0905,4.0962,4.0968,4.1034,4.1035,4.1127,4.1118,4.1115,4.1114,4.1172,4.1166,4.1358,4.1383,4.1218,4.122,4.1221,0,4.0619,4.0671,4.071,4.0743,4.0764,4.0817,4.085,4.085,4.0885,4.093,4.097,4.1025,4.1069,4.1161,4.1178,4.1229,4.1221,4.1285,4.1228,4.1229,4.1222,4.1219,4.1225,4.1296,4.1297,4.1299,4.13,0,4.076,4.0762,4.081,4.086,4.09,4.0939,4.0976,4.1004,4.1009,4.1049,4.1107,4.1142,4.121,4.1265,4.1316,4.1335,4.1319,4.1318,4.1334,4.1336,4.1332,4.1336,4.1145,4.1313,4.1312,4.1311,4.131,4.131,4.086,4.0906,4.0942,4.0996,4.1024,4.106,4.1105,4.1121,4.117,4.1225,4.1223,4.1288,4.1323,4.139,4.1413,4.1464,4.1443,4.1466,4.1472,4.1477,4.1484,4.1325,4.1473,4.1473,4.1472,4.1472,4.1472,0,4.1,4.1023,4.1073,4.1126,4.1169,4.1151,4.1192,4.1229,4.1286,4.1321,4.1366,4.1434,4.1488,4.151,4.1564,4.16,4.1594,4.1614,4.1611,4.1616,4.1499,4.148,4.1618,4.1618,4.1618,4.1618,4.1618,4.1618,4.1078,4.1155,4.1162,4.1254,4.1275,4.1339,4.1364,4.1397,4.1425,4.1502,4.1547,4.1562,4.1592,4.1648,4.1698,4.1703,4.1723,4.1747,4.1749,4.1639,4.1624,4.161,4.1592,4.1751,4.1751,4.1861,4.1862,4.1863]},{"header":{"parameterUnit":"m.s-1","parameterCategory":1,"la1":30.2991,"la2":30.254,"lo1":-89.0895,"lo2":-89.0444,"dy":0.0017,"dx":0.0017,"nx":28,"ny":28,"refTime":"2025-03-19T21:00:00:Z","depth":0,"parameterNumber":3,"parameterNumberName":"V-component_of_WINDS"},"data":[0,0,0,0,0,0,0,0,0,0,0,0,0,0,0,0,0,0,0,0,0,0,0,0,0,0,0,0,0,0,0,0,0,0,0,0,0,0,0,0,0,0,0,0,0,0,0,0,0,0,0,0,0,0,0,0,0,0,-6.7056,-6.7057,0,-6.7229,-6.7231,-6.7233,-6.7199,-6.7196,-6.7193,-6.719,-6.7364,-6.7372,-6.7379,0,0,0,0,0,0,0,0,0,0,0,0,0,-6.6693,-6.67,-6.7055,-6.7058,-6.706,-6.7229,-6.7231,-6.7233,-6.72,-6.7196,-6.7192,-6.7189,-6.7362,-6.7371,-6.738,0,0,0,0,0,0,0,0,0,0,0,0,0,-6.6857,-6.6702,-6.7055,-6.7063,-6.7066,-6.7228,-6.7231,-6.7234,-6.7201,-6.7196,-6.7191,-6.7187,-6.7359,-6.737,-6.7381,-6.7545,0,0,-6.7416,-6.7421,0,0,0,0,0,0,0,0,-6.6847,-6.687,-6.706,-6.7063,-6.7066,-6.7188,-6.7167,-6.7338,-6.7202,-6.7149,-6.719,-6.7185,-6.7309,-6.7324,-6.7367,-6.7553,-6.756,-6.7417,-6.7424,-6.7428,-6.7432,0,0,0,0,0,0,0,-6.6836,-6.6862,-6.7124,-6.7063,-6.7067,-6.7058,-6.7076,-6.7199,-6.7253,-6.7154,-6.7152,-6.7173,-6.731,-6.7356,-6.7371,-6.7563,-6.7416,-6.7426,-6.7433,-6.7438,-6.7892,-6.7897,0,0,0,0,0,0,-6.6822,-6.6853,-6.7118,-6.7129,-6.6943,-6.7068,-6.7088,-6.7153,-6.7252,-6.7262,-6.7177,-6.7171,-6.7339,-6.7358,-6.7377,-6.7575,-6.7428,-6.7439,-6.7445,-6.7887,-6.7893,-6.7899,0,0,0,0,0,0,-6.6815,-6.6846,-6.7111,-6.6991,-6.7024,-6.7079,-6.7153,-6.7159,-6.7206,-6.7269,-6.7278,-6.7214,-6.7336,-6.7361,-6.7504,-6.7581,-6.7444,-6.7454,-6.7881,-6.7889,-6.7896,-6.7973,0,0,0,0,0,0,-6.6804,-6.6844,-6.6907,-6.6992,-6.703,-6.7236,-6.7157,-6.7166,-6.7226,-6.7219,-6.7307,-6.7317,-6.7334,-6.7487,-6.7515,-6.7594,-6.7463,-6.7874,-6.7884,-6.7894,-6.7964,-6.7983,-6.7999,0,0,0,0,0,-6.6791,-6.6921,-6.691,-6.6943,-6.7111,-6.7241,-6.7262,-6.7281,-6.7232,-6.7296,-6.7337,-6.7314,-6.7568,-6.7502,-6.7533,-6.7616,-6.7869,-6.7881,-6.7893,-6.7956,-6.7979,-6.7998,0,0,0,0,0,0,-6.6841,-6.6932,-6.6921,-6.7082,-6.7155,-6.7235,-6.7316,-6.7304,-6.7391,-6.7381,-6.7399,-6.7419,-6.7565,-6.7605,-6.7529,-6.778,-6.7711,-6.773,-6.7749,-6.7771,-6.7788,-6.7775,-6.7473,0,0,0,0,0,-6.6872,-6.6971,-6.7044,-6.7179,-6.7216,-6.726,-6.7317,-6.7325,-6.74,-6.743,-6.7481,-6.7554,-6.765,-6.7713,-6.7805,-6.797,-6.7988,-6.8043,-6.806,-6.8074,-6.809,-6.818,-6.8205,-6.7938,-6.7938,-6.7938,0,0,-6.6934,-6.6996,-6.7057,-6.7191,-6.7247,-6.7349,-6.7285,-6.7395,-6.747,-6.7446,-6.7584,-6.7625,-6.7707,-6.7862,-6.7932,-6.79,-6.8168,-6.8089,-6.81,-6.8108,-6.8195,-6.822,-6.8243,-6.7946,-6.7945,-6.7943,0,0,-6.71,-6.7157,-6.7276,-6.7334,-6.7421,-6.745,-6.7479,-6.7562,-6.7588,-6.7727,-6.7712,-6.7801,-6.7966,-6.8025,-6.8077,-6.8267,-6.8249,-6.8296,-6.8387,-6.8475,-6.8496,-6.8515,-6.8582,-6.8606,-6.8312,-6.8312,-6.8312,0,-6.7166,-6.7319,-6.7338,-6.745,-6.7509,-6.7493,-6.7614,-6.7669,-6.7781,-6.7822,-6.7784,-6.7992,-6.8046,-6.8215,-6.8261,-6.8304,-6.8337,-6.8286,-6.8492,-6.8511,-6.8528,-6.8593,-6.8618,-6.8317,-6.8317,-6.8316,-6.8315,0,-6.7396,-6.7503,-6.7588,-6.7699,-6.7768,-6.7883,-6.7919,-6.7986,-6.7989,-6.8021,-6.8163,-6.8228,-6.8333,-6.8374,-6.8377,-6.8543,-6.852,-6.8487,-6.8418,-6.8559,-6.862,-6.8645,-6.8324,-6.8323,-6.8321,-6.832,0,0,-6.7597,-6.7718,-6.7749,-6.7799,-6.7895,-6.7977,-6.8092,-6.8196,-6.8253,-6.8331,-6.8428,-6.8569,-6.8539,-6.8598,-6.8607,-6.8685,-6.8831,-6.8642,-6.8644,-6.8675,-6.9019,-6.9043,-6.9071,-6.882,-6.8825,-6.8829,-6.9012,0,-6.7772,-6.7976,-6.7996,-6.8178,-6.8277,-6.8264,-6.8364,-6.8433,-6.8467,-6.8555,-6.8591,-6.8691,-6.8644,-6.868,-6.8756,-6.8797,-6.89,-6.8784,-6.8909,-6.8914,-6.8889,-6.9103,-6.9129,-6.9299,-6.9036,-6.904,-6.9043,0,-6.8002,-6.8089,-6.8281,-6.8364,-6.8406,-6.8496,-6.8593,-6.8678,-6.8756,-6.8775,-6.8841,-6.8841,-6.8959,-6.8886,-6.9048,-6.8969,-6.9022,-6.905,-6.9057,-6.9069,-6.8986,-6.9121,-6.9353,-6.9378,-6.9081,-6.9078,-6.9075,0,-6.813,-6.8294,-6.8431,-6.8474,-6.8574,-6.8637,-6.8682,-6.8755,-6.8817,-6.8902,-6.8942,-6.9039,-6.9092,-6.9167,-6.9192,-6.9137,-6.9354,-6.9283,-6.9372,-6.9372,-6.9418,-6.9415,-6.9662,-6.9453,-6.9452,-6.9452,-6.9451,0,-6.8322,-6.844,-6.8489,-6.8573,-6.8705,-6.8728,-6.8857,-6.8898,-6.8964,-6.9055,-6.905,-6.9135,-6.9164,-6.9255,-6.9275,-6.9407,-6.943,-6.9449,-6.9453,-6.9449,-6.9447,-6.9483,-6.9472,-6.9458,-6.9457,-6.9456,-6.9454,0,-6.8486,-6.8524,-6.8672,-6.8755,-6.8779,-6.8872,-6.8943,-6.9023,-6.9056,-6.9172,-6.92,-6.9252,-6.9358,-6.9391,-6.9519,-6.9533,-6.9686,-6.968,-6.966,-6.9661,-6.9748,-6.9739,-7.0027,-7.0065,-6.9831,-6.9833,-6.9835,0,-6.8606,-6.8697,-6.879,-6.8852,-6.8899,-6.8998,-6.9061,-6.9087,-6.9153,-6.9249,-6.9318,-6.9424,-6.9509,-6.9679,-6.9727,-6.9825,-6.9821,-6.9915,-6.9835,-6.9829,-6.9822,-6.9816,-6.9825,-6.9929,-6.9932,-6.9934,-6.9936,0,-6.8816,-6.883,-6.8922,-6.9021,-6.9097,-6.9176,-6.9252,-6.9302,-6.9339,-6.9413,-6.9522,-6.9589,-6.972,-6.9825,-6.9925,-6.9969,-6.9959,-6.9961,-6.9986,-6.9983,-6.9968,-6.9978,-6.9701,-6.9954,-6.9952,-6.995,-6.9949,-6.9949,-6.8961,-6.9042,-6.912,-6.9223,-6.9283,-6.9355,-6.9435,-6.9479,-6.957,-6.968,-6.9689,-6.9807,-6.9884,-7.0017,-7.0067,-7.0159,-7.0132,-7.0169,-7.0178,-7.0187,-7.0194,-6.9954,-7.0177,-7.0176,-7.0176,-7.0176,-7.0175,0,-6.917,-6.922,-6.9315,-6.9422,-6.9503,-6.9488,-6.9571,-6.964,-6.9744,-6.9816,-6.9901,-7.0027,-7.0129,-7.0186,-7.0287,-7.035,-7.0348,-7.0376,-7.0371,-7.0381,-7.0213,-7.018,-7.0376,-7.0376,-7.0376,-7.0376,-7.0376,-7.0376,-6.9288,-6.9423,-6.9447,-6.9612,-6.9662,-6.9778,-6.9827,-6.9893,-6.9951,-7.0092,-7.0177,-7.0214,-7.028,-7.0387,-7.0479,-7.0493,-7.0531,-7.0562,-7.0573,-7.0414,-7.0393,-7.0374,-7.0343,-7.057,-7.057,-7.0734,-7.0736,-7.0737]}]]